Location: *
(45.0500°N, 12.0500°E)
Time: 02:39:55
(UTC+00:00)

CARTOSAT-1 - Visible Passes

Search period start: 26 July 2021 00:00
Search period end: 05 August 2021 00:00
Orbit: 616 x 618 km, 97.8° (Epoch: 25 July)

Date Brightness Start Highest point End Pass type
(mag) Time Alt. Az. Time Alt. Az. Time Alt. Az.
26 Jul 5.3 19:20:19 10° ESE 19:23:17 18° ENE 19:26:15 10° NNE visible
26 Jul 4.3 20:56:36 23° SSW 20:59:00 48° W 21:03:12 10° NNW visible
27 Jul 4.9 19:36:09 11° ESE 19:39:34 26° ENE 19:43:08 10° N visible
27 Jul 4.9 21:13:15 20° SW 21:15:30 32° W 21:19:25 10° NNW visible
28 Jul 4.3 19:52:49 15° SE 19:55:53 37° ENE 19:59:52 10° N visible
28 Jul 5.5 21:29:56 16° SW 21:32:03 22° W 21:35:27 10° NW visible
29 Jul 3.8 20:09:29 20° SE 20:12:14 54° ENE 20:16:28 10° N visible
29 Jul 5.9 21:46:36 12° WSW 21:48:38 15° W 21:51:11 10° NW visible
30 Jul 3.5 20:26:10 25° SSE 20:28:38 81° ENE 20:32:58 10° N visible
31 Jul 3.7 20:42:50 28° S 20:45:04 68° WSW 20:49:23 10° NNW visible
01 Aug 5.2 19:22:41 10° ESE 19:25:46 19° ENE 19:28:52 10° NNE visible
01 Aug 4.4 20:59:31 26° SSW 21:01:31 44° W 21:05:41 10° NNW visible
02 Aug 4.8 19:39:05 14° ESE 19:42:03 27° ENE 19:45:42 10° N visible
02 Aug 5.0 21:16:12 22° SW 21:18:03 30° W 21:21:52 10° NNW visible
03 Aug 4.2 19:55:46 19° SE 19:58:23 39° ENE 20:02:25 10° N visible
03 Aug 5.6 21:32:53 17° SW 21:34:35 21° W 21:37:52 10° NW visible
04 Aug 3.7 20:12:27 26° SE 20:14:44 58° ENE 20:19:00 10° N visible
04 Aug 6.0 21:49:33 12° WSW 21:51:11 14° W 21:53:31 10° WNW visible
